Regional Weather Roundup
Issued by NWS Wakefield, VA

Home | Current Version | Previous Version | Graphics & Text | Print | Product List | Glossary On
Versions: 1 2 3 4 5 6 7 8 9 10 11 12 13 14 15 16 17 18 19 20 21 22 23 24 25 26 27 28 29 30 31 32 33 34 35 36 37 38 39 40 41 42 43 44 45 46 47 48 49 50
861
ASUS41 KAKQ 190315
RWRAKQ

REGIONAL WEATHER ROUNDUP
NATIONAL WEATHER SERVICE WAKEFIELD VA
1000 PM EST WED JAN 18 2017

Note: "fair" indicates few or no clouds below 12,000 feet with no
significant weather and/or obstructions to visibility. * = Denotes
station may not report precipitation (e.g., rain,snow,etc.),
thunder or fog.

VAZ042-051-052>054-056-190400-
NORTHERN VIRGINIA

CITY           SKY/WX    TMP DP  RH WIND       PRES   REMARKS
WASH NATIONAL  MOCLDY    48  36  63 NW14      30.08F
DULLES         MOCLDY    43  34  70 NW3       30.09S
FORT BELVOIR   PTCLDY    47  34  61 NW10      30.08S
QUANTICO       CLEAR     47  36  65 N13       30.10S
FREDERICKSBRG* CLEAR     46  37  70 N6        30.08S
STAFFORD*      CLEAR     44  36  72 N8        30.12S
WARRENTON      CLEAR     45  33  62 N8        30.08S
CULPEPER*      CLEAR     44  36  74 N8        30.09S
MANASSAS*      CLEAR    N/A N/A N/A N6        30.10S
LEESBURG*      CLOUDY    45  39  81 MISG      30.09S
WINCHESTER     CLOUDY    41  34  75 NW8       30.09S
FRONT ROYAL*   CLOUDY    43  36  75 CALM      30.08S
LURAY*         FAIR      37  36  93 NE5       30.08R
$$

VAZ048-049-060>072-079>083-190400-
CENTRAL AND SOUTH CENTRAL VIRGINIA

CITY           SKY/WX    TMP DP  RH WIND       PRES   REMARKS
RICHMOND       CLEAR     47  37  68 N8        30.06S
CHESTERFIELD*  FAIR      48  27  43 NE6       30.08R
PETERSBURG*    CLEAR     37  34  87 CALM      30.08R
HANOVER        CLEAR     47  35  63 CALM      30.08S
TAPPAHANNOCK*  CLEAR     47  31  54 N5        30.07S
QUINTON*       FAIR      47  37  68 N10       30.06S
CHARLOTTSVILLE CLEAR     46  35  65 NE6       30.06R
GORDONSVILLE*  FAIR      37  34  90 CALM      30.07R
ORANGE*          N/A     43  36  75 CALM      30.09S
LOUISA*        CLEAR     48  39  71 NE5       30.06R
BUMPASS*       FAIR      45  36  72 NE3       30.08R
FARMVILLE*     PTCLDY    42  37  82 CALM      30.05R
CREWE*         FAIR      40  40  99 CALM      30.06R
FORT PICKETT*  FAIR      43  33  67 NE5       30.06R
CHASE CITY*    FAIR      46  34  62 NW3       30.06F
CLARKSVILLE*   FAIR      48  36  61 CALM      30.06F
SOUTH HILL*    CLEAR     45  37  73 CALM      30.12R
LAWRENCEVILLE* FAIR      47  35  64 CALM      30.06R
EMPORIA*       CLEAR     39  36  87 CALM      30.09R
$$

VAZ088>098-190400-
SOUTHEAST VIRGINIA

CITY           SKY/WX    TMP DP  RH WIND       PRES   REMARKS
NORFOLK        CLEAR     46  41  82 N6        30.03S
VIRGINIA BEACH CLEAR     43  38  82 N5        30.03S
NORFOLK NAVAL  CLEAR     44  40  85 N3        30.06R
WEST POINT*    CLEAR     41  35  79 CALM      30.07S
SALUDA*        FAIR      43  40  90 CALM      30.05S
NEWPORT NEWS   CLEAR     41  39  93 CALM      30.05R
LANGLEY AFB    CLEAR     40  40  99 CALM      30.04R
FORT EUSTIS    CLEAR     41  38  89 CALM      30.03R
WILLIAMSBURG*  CLEAR     46  39  76 CALM      30.06R
HR EXEC AP*      N/A     36  30  80 CALM      30.04S VSB 3/4
FRANKLIN*      FOG       40  39  98 CALM      30.07R VSB 1/2
US460-WAKEFLD  CLEAR     42  41  96 CALM      30.07R
$$

VAZ020-022-025-037-045-190400-
WEST CENTRAL AND SOUTHWEST VIRGINIA

CITY           SKY/WX    TMP DP  RH WIND       PRES   REMARKS
STAUNTON*      CLEAR     33  31  90 CALM      30.08F
WAYNESBORO*    FAIR      39  33  80 CALM      30.06F
HOT SPRINGS VA FOG       34  34 100 W20       30.01S VSB 1/4 WCI  22
LYNCHBURG      CLOUDY    36  33  89 NW3       30.07S
DANVILLE       CLOUDY    43  37  79 W5        30.09R
SOUTH BOSTON*  FAIR      47  35  62 W3        30.07S
MARTINSVILLE   CLOUDY    45  35  69 N9        30.11S
ROANOKE        PTCLDY    44  36  73 W9        30.11R
BLACKSBURG     CLOUDY    41  37  84 W3        30.13S
DUBLIN*        CLOUDY    41  37  84 CALM      30.11F
MARION*        CLOUDY    37  36  94 W5        30.13R
HILLSVILLE*    CLOUDY    38  36  91 CALM      30.07S
RICHLANDS*     FAIR     N/A N/A N/A N3        30.12R
WISE*          CLOUDY    37  37 100 CALM      30.12R
ABINGDON*      CLOUDY    41  38  89 CALM      30.12R
$$

MDZ021>025-VAZ099-100-190400-
SOUTHERN MARYLAND AND THE DELMARVA PENINSULA

CITY           SKY/WX    TMP DP  RH WIND       PRES   REMARKS
PATUXENT RIVER CLOUDY    48  37  65 NW10      30.05S
BAY BRIDGE APT CLOUDY    46  37  71 NW7       30.05F
LEONARDTOWN    CLOUDY    46  36  66 NW3       30.07S
DOVER          CLOUDY    45  45 100 CALM      30.04S
GEORGETOWN     CLOUDY    47  41  80 N5        30.05S
EASTON         CLOUDY    50  37  62 N5        30.09F
CAMBRIDGE      CLOUDY    48  37  66 N7        30.05S
SALISBURY      CLOUDY    49  40  71 E3        30.04S
OCEAN CITY     CLOUDY    46  43  89 N7        30.04
WALLOPS ISLAND CLOUDY    49  43  80 N6        30.05S
ACCOMACK*      PTCLDY    46  42  88 N3        30.04S
$$

NCZ012>017-030>032-190400-
NORTH CENTRAL AND EASTERN NORTH CAROLINA

CITY           SKY/WX    TMP DP  RH WIND       PRES   REMARKS
ROANOKE RAPIDS FAIR      45  36  70 E6        30.06R
RALEIGH        CLOUDY    52  34  50 N3        30.06R
ELIZABETH CITY CLEAR     41  40  96 W7        30.05R
AHOSKIE*         N/A     42  42  97 CALM      30.07R
EDENTON*       CLEAR     47  42  85 CALM      30.06S
CURRITUCK*     CLEAR     48  42  81 CALM      30.05R
KILL DEVIL HLS NOT AVBL
MANTEO         CLEAR     46  45  98 NW3       30.04R
CAPE HATTERAS  CLEAR     49  45  86 VRB5      30.04R
TARBORO*       NOT AVBL
GOLDSBORO      CLEAR     49  39  69 CALM      30.03S
WASHINGTON     CLEAR     43  43  97 CALM        N/A
GREENVILLE     CLEAR     46  45  93 CALM      30.07S
NEW BERN       CLEAR     42  40  92 CALM      30.06S
WILMINGTON     CLEAR     53  47  79 E9        30.04R
$$

VAZ048-190400-
ELSEWHERE

CITY           SKY/WX    TMP DP  RH WIND       PRES   REMARKS
HARRISBURG PA  CLOUDY    43  37  79 NW6       30.04F
BALTIMORE      CLOUDY    47  37  68 NW7       30.06F
ANNAPOLIS      CLOUDY    49  36  61 NW6       30.06F
ANDREWS AFB    CLOUDY    47  35  64 NW9       30.06S
PHILADELPHIA   CLOUDY    45  38  76 N3        30.05S
HENDERSON NC   CLOUDY    46  32  59 CALM      30.06F
GREENSBORO     CLOUDY    48  38  68 N5        30.05S
ROCKY MOUNT    CLEAR     45  40  82 CALM      30.06R
$$

VAZ100-190400-
MARINE

STATION/POSITION TIME  TEMP    WIND        PRES    WAVE   SWELL
                       AIR SEA DIR/SP/G            HT/PER HT/PER
                 (UTC) (F)     (DEG/KT/KT) (MB)    (FT/S) (FT/S)
CAPE MAY NJ      0248   42 41  350/  2/  4 1017.2R
LEWES DE         0248   43 41  330/  4/  5 1017.4R
OCEAN-CITY-INLET 0248   45 43   20/  8/ 11 1017.6F
WACHAPREAGUE VA  0248   47 49  330/  1/  2 1017.1F
THOMAS POINT MD  0300   48 39  320/ 13/ 15   N/A
GOOSES REEF MD   0250   45     310/  8/ 10 1018.5F
COVE POINT MD    0248   45     350/ 12/ 14 1018.1F
SOLOMONS ISLAND  0248   48 41  320/  6/  8   N/A
BISHOPS HEAD MD  0248   49 44  350/  3/  6 1017.8S
PINEY POINT MD   0248          360/ 10/ 11   N/A
POTOMAC MD       0250   47      10/  4/  6 1016.8S
CAMBRIDGE MD     0248   48 40  350/  9/ 10 1017.0F
LEWISETTA VA     0248   48 43  350/  8/ 11 1017.5S
RAPPAHANNOCK LGT 0248           10/ 10/ 11 1017.7R
STINGRAY PT      0250   45      20/ 10/ 10 1017.7R
YORK RVR RNG VA  0248   47      10/  7/  8 1016.6R
YORKTOWN VA      0248   47 44  300/  5/  5 1017.1R
JAMESTOWN VA     0250   49     290/  4/  6   N/A
DOMINION TERM VA 0248   46     300/  6/  6 1017.4R
KIPTOPEKE VA     0248      43   30/  5/  7   N/A
CHES BAY BRIDGE  0248   45 42  340/  8/  8 1017.1R
CAPE HENRY VA    0248   46     330/  6/  6   N/A
WILLOUBY STN VA  0248   46      70/  2/  3 1018.1R
S CRANEY ISL VA  0248   47     280/  3/  3 1017.1R
CAPE HENRY BUOY  0242      47                N/A     2/ 8
OFFSHORE WE BUOY 0251      49                N/A     2/ 8
64NM E OF VA BCH 0250   53 56   10/ 25/ 29 1015.4F   5/ 6
DUCK PIER NC     0248   48 45  340/ 10/ 11 1016.2S
44100 DUCK FRF   0235      48                N/A     2/ 7
44056 DUCK FRF   0230      46                N/A     2/ 4
OREGON INLET NC  0242   47 51  330/  6/  8 1016.8S
HATTERAS NC      0248   49 55  340/ 10/ 11 1016.5R
DIAMOND SHLS NC  0250   55 74   10/ 19/ 25 1016.3R   6/ 6   2/14
CAPE LOOKOUT NC  0200   51      20/ 10/ 12 1017.1R
$$




USA.gov is the U.S. government's official web portal to all federal, state and local government web resources and services.